Weather History for Montague, CA

Change the Weather History Date:

Tuesday, October 15, 2013

  Actual Average Record
Temperature  
Mean Temperature 47 °F 52 °F  
Max Temperature 67 °F 69 °F 87 °F (1991)
Min Temperature 26 °F 36 °F 26 °F (1966)
Degree Days  
Heating Degree Days 18 13  
Month to date heating degree days 242 154  
Since 1 July heating degree days 389 296  
Cooling Degree Days 0 0  
Month to date cooling degree days 0 0  
Year to date cooling degree days 776 542  
Moisture  
Dew Point 25 °F    
Average Humidity 47    
Maximum Humidity 75    
Minimum Humidity 18    
Precipitation  
Precipitation 0.00 in 0.04 in 0.23 in (1951)
Month to date precipitation T 0.34  
Year to date precipitation 5.07 11.98  
Sea Level Pressure  
Sea Level Pressure 30.26 in    
Wind  
Wind Speed 3 mph (NNW)    
Max Wind Speed 17 mph    
Max Gust Speed 36 mph    
Visibility 10 miles    
Events      
T = Trace of Precipitation, MM = Missing Value Source: NWS Daily Summary

Daily Weather History Graph

Daily Weather History Graph

Search for Another Location

Airport:

Trip Planner

Search our weather history database for the weather conditions in past years. The results will help you decide how hot, cold, wet, or windy it might be!

Date:

Astronomy

Oct. 15, 2013 Rise Set
Actual Time 7:22 AM PDT 6:27 PM PDT
Civil Twilight 6:54 AM PDT 6:55 PM PDT
Nautical Twilight 6:22 AM PDT 7:28 PM PDT
Astronomical Twilight 5:49 AM PDT 8:00 PM PDT
Moon 4:38 PM PDT (10/15) 3:48 AM PDT (10/15)
Length of Visible Light 12h 01m
Length of Day
11h 05m
Waxing Gibbous, 88% of the Moon is Illuminated
Oct 15
Waxing Gibbous
Oct 18
Full
Oct 26
Last Quarter
Nov 3
New
Nov 9
First Quarter

Hourly Weather History & Observations

Time (PDT) Temp. Windchill Dew Point Humidity Pressure Visibility Wind Dir Wind Speed Gust Speed Precip Events Conditions
12:53 AM 39.0 °F 36.8 °F 24.1 °F 55% 30.29 in 10.0 mi Variable 3.5 mph - N/A   Clear
1:53 AM 46.0 °F 41.0 °F 26.1 °F 46% 30.28 in 10.0 mi NNE 10.4 mph - N/A   Clear
2:53 AM 35.1 °F 29.3 °F 24.1 °F 64% 30.29 in 10.0 mi NE 6.9 mph - N/A   Clear
3:53 AM 37.9 °F - 26.1 °F 62% 30.28 in 10.0 mi Calm Calm - N/A   Clear
4:53 AM 32.0 °F 26.4 °F 23.0 °F 69% 30.30 in 10.0 mi NNE 5.8 mph - N/A   Clear
5:53 AM 33.1 °F - 24.1 °F 70% 30.31 in 10.0 mi Calm Calm - N/A   Clear
6:53 AM 30.9 °F 27.5 °F 23.0 °F 72% 30.34 in 10.0 mi SSW 3.5 mph - N/A   Clear
7:53 AM 28.0 °F - 21.9 °F 78% 30.37 in 10.0 mi Calm Calm - N/A   Clear
8:53 AM 37.0 °F 33.3 °F 27.0 °F 67% 30.36 in 10.0 mi SW 4.6 mph - N/A   Clear
9:53 AM 44.1 °F - 28.9 °F 55% 30.34 in 10.0 mi Calm Calm - N/A   Clear
10:53 AM 51.1 °F - 30.0 °F 44% 30.32 in 10.0 mi West 3.5 mph - N/A   Clear
11:53 AM 55.9 °F - 28.9 °F 36% 30.30 in 10.0 mi Calm Calm - N/A   Clear
12:53 PM 61.0 °F - 27.0 °F 27% 30.27 in 10.0 mi North 5.8 mph - N/A   Clear
1:53 PM 62.1 °F - 25.0 °F 24% 30.22 in 10.0 mi Calm Calm - N/A   Clear
2:53 PM 64.9 °F - 24.1 °F 21% 30.21 in 10.0 mi Calm Calm - N/A   Clear
3:53 PM 66.9 °F - 21.9 °F 18% 30.19 in 10.0 mi NE 3.5 mph - N/A   Clear
4:53 PM 66.9 °F - 21.9 °F 18% 30.19 in 10.0 mi Calm Calm - N/A   Clear
5:53 PM 63.0 °F - 27.0 °F 26% 30.18 in 10.0 mi SSW 4.6 mph - N/A   Clear
6:53 PM 55.0 °F - 25.0 °F 31% 30.20 in 10.0 mi South 3.5 mph - N/A   Clear
7:53 PM 48.9 °F - 23.0 °F 36% 30.22 in 10.0 mi Calm Calm - N/A   Clear
8:53 PM 46.9 °F - 24.1 °F 41% 30.22 in 10.0 mi Calm Calm - N/A   Clear
9:53 PM 43.0 °F 41.3 °F 24.1 °F 47% 30.21 in 10.0 mi NNE 3.5 mph - N/A   Clear
10:53 PM 39.0 °F 36.8 °F 23.0 °F 53% 30.21 in 10.0 mi West 3.5 mph - N/A   Clear
11:53 PM 35.1 °F - 21.9 °F 59% 30.20 in 10.0 mi North - - N/A   Clear